FW6082 Weather Reports


time (UTC)temp
C
wind
direction
speed
KPH
gust
KPH
rain 1hr
cm
rain 24hr
cm
rain mn
cm
humidity
%
barometer
mb
20260903080040 10 52 0.0 0.0 0.00 0.00 0.00 61 1016.0
20260903074543 10 52 0.0 0.0 0.00 0.00 0.00 62 1016.2
20260903073035 10 52 0.0 0.0 0.00 0.00 0.00 61 1016.2
20260903071534 11 52 0.0 0.0 0.00 0.00 0.00 59 1016.1
20260903070052 11 52 0.0 0.0 0.00 0.00 0.00 60 1016.1
20260903064530 11 52 0.0 0.0 0.00 0.00 0.00 60 1016.1
20260903063028 11 52 0.0 0.0 0.00 0.00 0.00 59 1016.1
20260903061528 11 52 0.0 3.2 0.00 0.00 0.00 58 1016.2
20260903060026 11 339 0.0 0.0 0.00 0.00 0.00 58 1016.2
20260903054535 11 339 0.0 0.0 0.00 0.00 0.00 58 1016.4
20260903053023 12 339 0.0 0.0 0.00 0.00 0.00 58 1016.4
20260903051522 12 339 0.0 0.0 0.00 0.00 0.00 58 1016.4
20260903050021 12 339 0.0 0.0 0.00 0.00 0.00 58 1016.3
20260903044518 12 339 0.0 0.0 0.00 0.00 0.00 57 1016.4
20260903043022 12 339 0.0 0.0 0.00 0.00 0.00 56 1016.3
20260903041520 12 339 0.0 0.0 0.00 0.00 0.00 56 1016.2
20260903040012 13 339 0.0 0.0 0.00 0.00 0.00 56 1016.2
20260903034519 13 339 0.0 0.0 0.00 0.00 0.00 55 1016.4
20260903033009 13 339 0.0 0.0 0.00 0.00 0.00 52 1016.5
20260903031508 14 339 0.0 0.0 0.00 0.00 0.00 49 1016.6
20260903030008 15 339 0.0 0.0 0.00 0.00 0.00 48 1016.7
20260903024507 15 339 0.0 0.0 0.00 0.00 0.00 45 1016.6
20260903023024 16 339 0.0 1.6 0.00 0.00 0.00 44 1016.7
20260903021505 16 339 0.0 0.0 0.00 0.00 0.00 44 1016.6
20260903020003 16 284 0.0 1.6 0.00 0.00 0.00 44 1016.5
20260903014504 16 216 0.0 4.8 0.00 0.00 0.00 43 1016.4
20260903013002 16 329 1.6 6.4 0.00 0.00 0.00 43 1016.4
20260903011501 16 323 0.0 1.6 0.00 0.00 0.00 43 1016.4
20260903010100 16 323 0.0 4.8 0.00 0.00 0.00 42 1016.2
20260903004601 15 18 0.0 0.0 0.00 0.00 0.00 41 1016.1
20260903003110 16 18 0.0 0.0 0.00 0.00 0.00 38 1016.0
20260903001556 16 18 0.0 0.0 0.00 0.00 0.00 35 1015.7
20260903000103 16 18 0.0 0.0 0.00 0.00 0.00 35 1015.7
20260902234555 17 18 0.0 0.0 0.00 0.00 0.00 36 1015.6
20260902233054 17 18 0.0 0.0 0.00 0.00 0.00 33 1015.4
20260902231553 18 18 0.0 0.0 0.00 0.00 0.00 33 1015.2
20260902224609 20 18 0.0 0.0 0.00 0.00 0.00 29 1015.0
20260902223109 20 18 0.0 1.6 0.00 0.00 0.00 26 1014.9
20260902221558 20 97 0.0 0.0 0.00 0.00 0.00 24 1014.7
20260902220051 21 221 0.0 8.0 0.00 0.00 0.00 23 1014.5
20260902214615 21 249 1.6 9.7 0.00 0.00 0.00 20 1014.5
20260902213051 21 219 1.6 8.0 0.00 0.00 0.00 22 1014.3
20260902211552 22 284 0.0 9.7 0.00 0.00 0.00 21 1014.1
20260902210050 22 252 1.6 6.4 0.00 0.00 0.00 17 1014.0
20260902204546 22 325 1.6 4.8 0.00 0.00 0.00 16 1013.8
20260902203045 23 219 0.0 6.4 0.00 0.00 0.00 17 1014.0
20260902201556 23 257 1.6 11.3 0.00 0.00 0.00 16 1013.9
20260902200047 23 281 3.2 11.3 0.00 0.00 0.00 15 1013.6
20260902194548 23 326 0.0 6.4 0.00 0.00 0.00 17 1013.8
20260902193043 23 244 3.2 8.0 0.00 0.00 0.00 16 1014.1
20260902191542 23 298 3.2 12.9 0.00 0.00 0.00 15 1013.9
20260902190042 23 236 3.2 12.9 0.00 0.00 0.00 13 1014.1
20260902184539 23 271 6.4 14.5 0.00 0.00 0.00 13 1014.2
20260902183038 23 292 6.4 14.5 0.00 0.00 0.00 15 1013.8
20260902181539 24 281 4.8 9.7 0.00 0.00 0.00 16 1014.0
20260902180034 25 244 4.8 11.3 0.00 0.00 0.00 15 1014.1
20260902174543 24 266 1.6 9.7 0.00 0.00 0.00 16 1014.2
20260902173026 23 283 4.8 14.5 0.00 0.00 0.00 16 1014.5
20260902171526 23 282 4.8 14.5 0.00 0.00 0.00 17 1014.7
20260902170032 23 240 3.2 11.3 0.00 0.00 0.00 14 1014.7
20260902164534 23 270 3.2 12.9 0.00 0.00 0.00 15 1014.7
20260902163018 23 280 3.2 9.7 0.00 0.00 0.00 17 1015.1
20260902161524 23 224 3.2 11.3 0.00 0.00 0.00 18 1015.0
20260902160013 22 329 0.0 4.8 0.00 0.00 0.00 20 1014.9
20260902154517 22 20 0.0 6.4 0.00 0.00 0.00 19 1015.3
20260902153014 22 180 0.0 4.8 0.00 0.00 0.00 20 1015.5
20260902151507 21 255 0.0 3.2 0.00 0.00 0.00 22 1015.3
20260902150009 22 211 0.0 4.8 0.00 0.00 0.00 23 1015.4
20260902144506 22 209 0.0 3.2 0.00 0.00 0.00 21 1015.4
20260902143059 22 105 0.0 1.6 0.00 0.00 0.00 20 1015.3
20260902141555 21 105 0.0 0.0 0.00 0.00 0.00 21 1015.2
20260902140057 20 105 0.0 0.0 0.00 0.00 0.00 24 1015.2
20260902134547 18 105 0.0 1.6 0.00 0.00 0.00 30 1015.2
20260902133054 17 105 0.0 0.0 0.00 0.00 0.00 24 1015.2
20260902131538 17 105 0.0 0.0 0.00 0.00 0.00 31 1015.2
20260902130035 16 359 0.0 0.0 0.00 0.00 0.00 30 1015.1
20260902124535 15 359 0.0 0.0 0.00 0.00 0.00 35 1015.0
20260902123029 15 359 0.0 0.0 0.00 0.00 0.00 31 1015.0
20260902121527 14 359 0.0 0.0 0.00 0.00 0.00 36 1014.9
20260902120022 13 359 0.0 0.0 0.00 0.00 0.00 35 1014.8
20260902114520 12 359 0.0 0.0 0.00 0.00 0.00 36 1014.9
20260902113016 13 359 0.0 0.0 0.00 0.00 0.00 35 1014.8
20260902111513 12 359 0.0 0.0 0.00 0.00 0.00 36 1014.8
20260902110017 12 359 0.0 0.0 0.00 0.00 0.00 38 1014.7
20260902104512 12 359 0.0 0.0 0.00 0.00 0.00 36 1014.6
20260902103013 12 359 0.0 0.0 0.00 0.00 0.00 37 1014.6
20260902101511 12 359 0.0 0.0 0.00 0.00 0.00 38 1014.6
20260902100010 12 359 0.0 0.0 0.00 0.00 0.00 40 1014.6
20260902094510 12 359 0.0 0.0 0.00 0.00 0.00 36 1014.2
20260902093008 12 359 0.0 0.0 0.00 0.00 0.00 36 1014.2
20260902091507 13 359 0.0 0.0 0.00 0.00 0.00 34 1014.0
20260902090008 13 359 0.0 0.0 0.00 0.00 0.00 30 1014.0
20260902084506 13 359 0.0 1.6 0.00 0.00 0.00 30 1013.9
20260902083004 13 359 0.0 1.6 0.00 0.00 0.00 37 1014.1
20260902081503 12 359 0.0 0.0 0.00 0.00 0.00 37 1014.3